Terug naar catalogus

DELTA 1 DEB

ActiefSSO
NORAD 7158·DEBRIS·🇺🇸 United States

Gelanceerd Nov 6, 1973 vanaf Vandenberg Space Force Base

Loading…

Volgende Passages (komende 24 uur)

TLE

VersSource: Space-Track

Epoch: Sep 13, 2026, 01:23 UTC

1 07158U 73086DW  26256.05798694 -.00000033  00000-0  10940-3 0  9998
2 07158 102.4372 287.9635 0041003 308.0409  79.1171 12.31773841375945

Volg DELTA 1 DEB in realtime met AllMySat

Download on the App Store